EW7347 Weather Reports


time (UTC)temp
C
wind
direction
speed
KPH
gust
KPH
rain 1hr
cm
rain 24hr
cm
rain mn
cm
humidity
%
barometer
mb
20260508070041 13 184 0.0 0.0 0.00 0.00 0.00 74 1015.2
20260508065526 12 182 0.0 0.0 0.00 0.00 0.00 77 1015.1
20260508065030 12 145 0.0 0.0 0.00 0.00 0.00 79 1015.0
20260508064536 12 136 0.0 0.0 0.00 0.00 0.00 80 1015.0
20260508064042 11 204 0.0 0.0 0.00 0.00 0.00 81 1015.0
20260508063543 11 203 0.0 0.0 0.00 0.00 0.00 83 1015.0
20260508063031 11 206 0.0 0.0 0.00 0.00 0.00 83 1015.0
20260508061856 10 206 0.0 0.0 0.00 0.00 0.00 84 1014.9
20260508061403 10 207 0.0 0.0 0.00 0.00 0.00 84 1014.9
20260508060858 10 120 0.0 0.0 0.00 0.00 0.00 84 1014.9
20260508060355 10 189 0.0 0.0 0.00 0.00 0.00 85 1014.8
20260508055227 10 155 0.0 0.0 0.00 0.00 0.00 86 1014.8
20260508054720 10 135 0.0 0.0 0.00 0.00 0.00 86 1014.7
20260508054212 9 207 0.0 0.0 0.00 0.00 0.00 86 1014.7
20260508053654 9 135 0.0 0.0 0.00 0.00 0.00 86 1014.7
20260508053153 9 158 0.0 0.0 0.00 0.00 0.00 86 1014.6
20260508052656 9 158 0.0 0.0 0.00 0.00 0.00 86 1014.6
20260508052202 9 161 0.0 0.0 0.00 0.00 0.00 86 1014.6
20260508051649 9 143 0.0 0.0 0.00 0.00 0.00 86 1014.6
20260508051138 9 187 0.0 0.0 0.00 0.00 0.00 86 1014.6
20260508050621 9 187 0.0 1.6 0.00 0.00 0.00 86 1014.6
20260508050105 9 187 0.0 0.0 0.00 0.00 0.00 86 1014.6
20260508045559 9 188 0.0 0.0 0.00 0.00 0.00 86 1014.6
20260508045108 9 188 0.0 0.0 0.00 0.00 0.00 85 1014.5
20260508043944 9 188 0.0 0.0 0.00 0.00 0.00 86 1014.5
20260508043427 9 188 0.0 0.0 0.00 0.00 0.00 86 1014.5
20260508042928 9 188 0.0 0.0 0.00 0.00 0.00 85 1014.5
20260508042420 9 188 0.0 0.0 0.00 0.00 0.00 85 1014.5
20260508041237 9 188 0.0 0.0 0.00 0.00 0.00 85 1014.4
20260508035500 9 188 0.0 0.0 0.00 0.00 0.00 83 1014.4
20260508034949 9 188 0.0 0.0 0.00 0.00 0.00 83 1014.3
20260508034442 9 188 0.0 0.0 0.00 0.00 0.00 83 1014.3
20260508033925 9 188 0.0 0.0 0.00 0.00 0.00 82 1014.4
20260508033421 10 188 0.0 0.0 0.00 0.00 0.00 82 1014.4
20260508032911 10 188 0.0 0.0 0.00 0.00 0.00 82 1014.5
20260508032412 10 188 0.0 0.0 0.00 0.00 0.00 81 1014.5
20260508031857 10 188 0.0 0.0 0.00 0.00 0.00 81 1014.6
20260508031339 10 188 0.0 0.0 0.00 0.00 0.00 81 1014.6
20260508030834 10 188 0.0 0.0 0.00 0.00 0.00 81 1014.6
20260508030314 10 188 0.0 0.0 0.00 0.00 0.00 81 1014.5
20260508025802 10 188 0.0 0.0 0.00 0.00 0.00 81 1014.5
20260508025306 10 188 0.0 0.0 0.00 0.00 0.00 81 1014.5
20260508024139 10 189 0.0 0.0 0.00 0.00 0.00 81 1014.4
20260508023633 10 192 0.0 0.0 0.00 0.00 0.00 81 1014.4
20260508023128 10 192 0.0 0.0 0.00 0.00 0.00 81 1014.5
20260508022631 10 192 0.0 0.0 0.00 0.00 0.00 81 1014.5
20260508022131 10 192 0.0 0.0 0.00 0.00 0.00 81 1014.5
20260508021633 10 192 0.0 0.0 0.00 0.00 0.00 81 1014.5
20260508021118 10 192 0.0 0.0 0.00 0.00 0.00 81 1014.5
20260508020603 10 192 0.0 0.0 0.00 0.00 0.00 81 1014.5
20260508020048 10 192 0.0 0.0 0.00 0.00 0.00 81 1014.5
20260508015550 10 192 0.0 0.0 0.00 0.00 0.00 81 1014.5
20260508015055 10 192 0.0 0.0 0.00 0.00 0.00 80 1014.5
20260508014556 10 192 0.0 0.0 0.00 0.00 0.00 80 1014.5
20260508014103 10 192 0.0 0.0 0.00 0.00 0.00 80 1014.6
20260508013558 10 192 0.0 0.0 0.00 0.00 0.00 80 1014.5
20260508013058 10 192 0.0 0.0 0.00 0.00 0.00 80 1014.6
20260508012557 10 192 0.0 0.0 0.00 0.00 0.00 79 1014.5
20260508012103 10 192 0.0 0.0 0.00 0.00 0.00 79 1014.5
20260508010914 11 192 0.0 0.0 0.00 0.00 0.00 78 1014.6
20260508010410 11 192 0.0 0.0 0.00 0.00 0.00 78 1014.5
20260508005248 11 196 0.0 0.0 0.00 0.00 0.00 78 1014.4
20260508004756 11 196 0.0 0.0 0.00 0.00 0.00 78 1014.4
20260508004254 11 196 0.0 0.0 0.00 0.00 0.00 78 1014.4
20260508003745 11 196 0.0 0.0 0.00 0.00 0.00 78 1014.4
20260508002623 11 196 0.0 0.0 0.00 0.00 0.00 78 1014.5
20260508002115 11 196 0.0 0.0 0.00 0.00 0.00 78 1014.5
20260508001600 11 196 0.0 0.0 0.00 0.00 0.00 78 1014.5
20260508001059 11 194 0.0 1.6 0.00 0.00 0.00 78 1014.6
20260508000559 11 185 0.0 0.0 0.00 0.00 0.00 78 1014.6
20260508000047 11 185 0.0 0.0 0.00 0.00 0.00 78 1014.5
20260507234900 11 194 0.0 0.0 0.00 0.00 0.00 78 1014.5
20260507234349 11 194 0.0 0.0 0.00 0.00 0.00 78 1014.6
20260507233852 11 194 0.0 0.0 0.00 0.00 0.00 78 1014.5
20260507233353 11 194 0.0 0.0 0.00 0.00 0.00 78 1014.6
20260507232838 11 200 0.0 0.0 0.00 0.00 0.00 77 1014.6
20260507232330 11 257 0.0 0.0 0.00 0.00 0.00 77 1014.7
20260507231816 11 257 0.0 0.0 0.00 0.00 0.00 77 1014.7
20260507230631 11 196 0.0 0.0 0.00 0.00 0.00 77 1014.7
20260507230129 11 200 0.0 0.0 0.00 0.00 0.00 77 1014.6
20260507225616 11 236 0.0 0.0 0.00 0.00 0.00 76 1014.6
20260507225106 11 204 0.0 0.0 0.00 0.00 0.00 76 1014.7
20260507224616 11 220 0.0 0.0 0.00 0.00 0.00 76 1014.7
20260507223449 11 267 0.0 0.0 0.00 0.00 0.00 75 1014.8
20260507222947 11 254 0.0 0.0 0.00 0.00 0.00 75 1014.8
20260507222454 11 239 0.0 0.0 0.00 0.00 0.00 75 1014.8
20260507221945 11 211 0.0 0.0 0.00 0.00 0.00 75 1014.8
20260507221443 11 273 0.0 0.0 0.00 0.00 0.00 74 1014.8
20260507220929 11 212 0.0 0.0 0.00 0.00 0.00 74 1014.8
20260507220417 11 215 0.0 0.0 0.00 0.00 0.00 74 1014.7
20260507215858 12 268 0.0 0.0 0.00 0.00 0.00 74 1014.8
20260507215354 12 286 0.0 0.0 0.00 0.00 0.00 74 1014.8
20260507214837 12 206 0.0 0.0 0.00 0.00 0.00 73 1014.7
20260507214344 12 204 0.0 0.0 0.00 0.00 0.00 73 1014.6
20260507213213 12 236 0.0 0.0 0.00 0.00 0.00 72 1014.6
20260507212724 12 117 0.0 0.0 0.00 0.00 0.00 72 1014.6
20260507212219 12 253 0.0 0.0 0.00 0.00 0.00 72 1014.5
20260507211729 12 252 0.0 0.0 0.00 0.00 0.00 72 1014.5
20260507211235 12 185 0.0 0.0 0.00 0.00 0.00 71 1014.4
20260507210729 12 184 0.0 0.0 0.00 0.00 0.00 70 1014.4
20260507210219 12 141 0.0 3.2 0.00 0.00 0.00 69 1014.4
20260507205711 12 51 0.0 0.0 0.00 0.00 0.00 69 1014.3
20260507205216 12 178 0.0 0.0 0.00 0.00 0.00 69 1014.3
20260507204041 12 192 0.0 0.0 0.00 0.00 0.00 68 1014.3
20260507202908 12 190 0.0 0.0 0.00 0.00 0.00 68 1014.1
20260507202414 12 117 0.0 0.0 0.00 0.00 0.00 68 1014.2
20260507195328 13 135 0.0 0.0 0.00 0.00 0.00 66 1013.7
20260507194219 13 188 0.0 0.0 0.00 0.00 0.00 65 1013.6
20260507193708 13 178 0.0 6.4 0.00 0.00 0.00 64 1013.6
20260507193159 13 199 0.0 0.0 0.00 0.00 0.00 63 1013.6
20260507192644 13 214 0.0 0.0 0.00 0.00 0.00 62 1013.6
20260507192128 13 345 0.0 0.0 0.00 0.00 0.00 61 1013.6
20260507191610 13 151 0.0 0.0 0.00 0.00 0.00 60 1013.6
20260507191107 13 156 0.0 0.0 0.00 0.00 0.00 60 1013.6
20260507190551 13 115 0.0 0.0 0.00 0.00 0.00 59 1013.5
20260507190100 13 188 0.0 0.0 0.00 0.00 0.00 59 1013.5
20260507185555 13 162 0.0 0.0 0.00 0.00 0.00 58 1013.5
20260507185052 14 123 0.0 0.0 0.00 0.00 0.00 59 1013.5
20260507184547 14 178 0.0 0.0 0.00 0.00 0.00 59 1013.4
20260507184029 14 184 0.0 0.0 0.00 0.00 0.00 58 1013.5
20260507182913 14 65 0.0 0.0 0.00 0.00 0.00 56 1013.4
20260507182408 14 186 0.0 0.0 0.00 0.00 0.00 56 1013.4
20260507181234 15 112 0.0 0.0 0.00 0.00 0.00 56 1013.3
20260507180732 15 175 0.0 0.0 0.00 0.00 0.00 56 1013.2
20260507180232 15 192 0.0 0.0 0.00 0.00 0.00 56 1013.2
20260507175731 15 194 0.0 0.0 0.00 0.00 0.00 54 1013.1
20260507174605 15 164 0.0 0.0 0.00 0.00 0.00 53 1013.1
20260507174113 15 132 0.0 0.0 0.00 0.00 0.00 54 1013.1
20260507173602 15 145 0.0 0.0 0.00 0.00 0.00 52 1013.1
20260507173106 15 202 0.0 0.0 0.00 0.00 0.00 52 1013.1
20260507172547 15 153 0.0 0.0 0.00 0.00 0.00 51 1013.1
20260507172049 15 131 0.0 0.0 0.00 0.00 0.00 51 1013.2
20260507170914 16 188 0.0 0.0 0.00 0.00 0.00 51 1013.2
20260507170412 16 146 0.0 0.0 0.00 0.00 0.00 49 1013.2
20260507165921 16 121 0.0 0.0 0.00 0.00 0.00 49 1013.1
20260507165408 16 145 0.0 0.0 0.00 0.00 0.00 47 1013.2
20260507164857 16 101 0.0 0.0 0.00 0.00 0.00 48 1013.2
20260507164354 16 54 0.0 0.0 0.00 0.00 0.00 47 1013.2
20260507163903 16 186 0.0 0.0 0.00 0.00 0.00 47 1013.2
20260507163408 16 186 0.0 1.6 0.00 0.00 0.00 46 1013.2
20260507162857 16 115 0.0 0.0 0.00 0.00 0.00 46 1013.2
20260507162349 17 165 0.0 0.0 0.00 0.00 0.00 47 1013.2
20260507161849 17 186 0.0 0.0 0.00 0.00 0.00 46 1013.2
20260507161358 17 116 0.0 0.0 0.00 0.00 0.00 46 1013.2
20260507160839 17 269 0.0 0.0 0.00 0.00 0.00 45 1013.2
20260507160339 17 199 0.0 0.0 0.00 0.00 0.00 44 1013.2
20260507155823 17 259 0.0 0.0 0.00 0.00 0.00 43 1013.2
20260507155308 17 256 0.0 0.0 0.00 0.00 0.00 43 1013.3
20260507154812 17 275 0.0 0.0 0.00 0.00 0.00 43 1013.3
20260507154305 17 309 0.0 0.0 0.00 0.00 0.00 43 1013.3
20260507153140 17 257 0.0 0.0 0.00 0.00 0.00 43 1013.3
20260507152645 17 279 0.0 1.6 0.00 0.00 0.00 44 1013.4
20260507152140 17 264 0.0 0.0 0.00 0.00 0.00 43 1013.4
20260507151648 17 264 0.0 0.0 0.00 0.00 0.00 41 1013.4
20260507151156 17 283 0.0 0.0 0.00 0.00 0.00 42 1013.5
20260507150637 17 88 0.0 0.0 0.00 0.00 0.00 43 1013.4
20260507150130 17 177 0.0 0.0 0.00 0.00 0.00 42 1013.4
20260507145627 17 186 0.0 0.0 0.00 0.00 0.00 44 1013.5
20260507145120 17 246 0.0 0.0 0.00 0.00 0.00 43 1013.5
20260507143928 17 179 0.0 0.0 0.00 0.00 0.00 45 1013.7
20260507143434 17 121 0.0 0.0 0.00 0.00 0.00 45 1013.7
20260507142934 17 202 0.0 0.0 0.00 0.00 0.00 46 1013.7
20260507142416 17 37 0.0 0.0 0.00 0.00 0.00 45 1013.7
20260507141912 17 132 0.0 0.0 0.00 0.00 0.00 45 1013.9
20260507140746 17 223 0.0 1.6 0.00 0.00 0.00 43 1013.9
20260507140253 17 193 0.0 0.0 0.00 0.00 0.00 44 1013.9
20260507135747 18 5 0.0 0.0 0.00 0.00 0.00 43 1013.9
20260507134624 17 288 0.0 0.0 0.00 0.00 0.00 44 1013.9
20260507134111 17 201 0.0 0.0 0.00 0.00 0.00 46 1013.9
20260507133554 16 259 0.0 0.0 0.00 0.00 0.00 47 1014.0
20260507133057 16 233 0.0 0.0 0.00 0.00 0.00 46 1014.0
20260507132540 16 252 0.0 0.0 0.00 0.00 0.00 46 1014.1
20260507132024 16 251 0.0 0.0 0.00 0.00 0.00 45 1014.2
20260507130214 16 214 0.0 0.0 0.00 0.00 0.00 48 1014.2
20260507125102 17 88 0.0 0.0 0.00 0.00 0.00 44 1014.2
20260507124558 17 190 0.0 0.0 0.00 0.00 0.00 42 1014.2
20260507124046 18 123 0.0 0.0 0.00 0.00 0.00 42 1014.2
20260507122931 17 275 0.0 0.0 0.00 0.00 0.00 43 1014.2
20260507122433 17 228 0.0 1.6 0.00 0.00 0.00 43 1014.3
20260507121914 17 198 0.0 0.0 0.00 0.00 0.00 46 1014.3
20260507121407 17 138 0.0 0.0 0.00 0.00 0.00 45 1014.3
20260507120910 17 242 0.0 0.0 0.00 0.00 0.00 45 1014.3
20260507120352 17 262 0.0 0.0 0.00 0.00 0.00 48 1014.3
20260507115846 17 180 0.0 8.0 0.00 0.00 0.00 49 1014.4
20260507114737 17 104 0.0 0.0 0.00 0.00 0.00 48 1014.4
20260507114245 17 126 0.0 0.0 0.00 0.00 0.00 48 1014.5
20260507113052 17 182 0.0 4.8 0.00 0.00 0.00 48 1014.6
20260507111934 16 195 0.0 0.0 0.00 0.00 0.00 51 1014.5
20260507110802 16 167 0.0 1.6 0.00 0.00 0.00 54 1014.7
20260507110251 16 197 0.0 0.0 0.00 0.00 0.00 55 1014.7
20260507105737 15 259 0.0 1.6 0.00 0.00 0.00 57 1014.7
20260507105234 15 78 0.0 0.0 0.00 0.00 0.00 54 1014.7
20260507104720 15 169 0.0 0.0 0.00 0.00 0.00 52 1014.7
20260507104214 16 178 0.0 0.0 0.00 0.00 0.00 54 1014.7
20260507102435 15 252 0.0 0.0 0.00 0.00 0.00 54 1014.8
20260507101930 15 126 0.0 0.0 0.00 0.00 0.00 59 1014.8
20260507101416 15 198 0.0 0.0 0.00 0.00 0.00 60 1014.9
20260507100915 15 207 0.0 0.0 0.00 0.00 0.00 61 1014.9
20260507100417 15 205 0.0 3.2 0.00 0.00 0.00 59 1014.9
20260507095909 15 244 0.0 0.0 0.00 0.00 0.00 59 1014.8
20260507095409 15 175 0.0 0.0 0.00 0.00 0.00 60 1014.8
20260507094900 14 177 0.0 0.0 0.00 0.00 0.00 58 1014.9
20260507094346 15 187 0.0 0.0 0.00 0.00 0.00 61 1014.9
20260507093856 14 138 0.0 1.6 0.00 0.00 0.00 60 1014.9
20260507092738 14 209 0.0 0.0 0.00 0.00 0.00 64 1014.9
20260507092226 13 96 0.0 0.0 0.00 0.00 0.00 66 1014.9
20260507091726 13 232 0.0 0.0 0.00 0.00 0.00 67 1014.9
20260507091216 13 54 0.0 0.0 0.00 0.00 0.00 69 1015.0
20260507090708 13 247 0.0 0.0 0.00 0.00 0.00 68 1014.9
20260507085546 12 244 0.0 0.0 0.00 0.00 0.00 72 1015.1
20260507085035 12 198 0.0 0.0 0.00 0.00 0.00 74 1015.1
20260507084516 11 189 0.0 1.6 0.00 0.00 0.00 75 1015.1
20260507084017 11 192 0.0 0.0 0.00 0.00 0.00 76 1015.2
20260507083509 11 263 0.0 0.0 0.00 0.00 0.00 76 1015.2
20260507082956 11 261 0.0 0.0 0.00 0.00 0.00 76 1015.2
20260507082449 10 331 0.0 0.0 0.00 0.00 0.00 76 1015.3
20260507081956 10 290 0.0 0.0 0.00 0.00 0.00 77 1015.2
20260507081441 10 136 0.0 0.0 0.00 0.00 0.00 79 1015.2
20260507080931 10 229 0.0 0.0 0.00 0.00 0.00 80 1015.3
20260507080429 10 259 0.0 0.0 0.00 0.00 0.00 80 1015.2
20260507075937 9 229 0.0 0.0 0.00 0.00 0.00 81 1015.2
20260507075442 9 202 0.0 0.0 0.00 0.00 0.00 82 1015.2
20260507074925 9 254 0.0 1.6 0.00 0.00 0.00 82 1015.2
20260507074412 9 184 0.0 0.0 0.00 0.00 0.00 83 1015.2
20260507073859 8 183 0.0 0.0 0.00 0.00 0.00 83 1015.2
20260507073347 8 183 0.0 0.0 0.00 0.00 0.00 83 1015.1
20260507072228 8 190 0.0 0.0 0.00 0.00 0.00 84 1015.1
20260507071732 8 190 0.0 0.0 0.00 0.00 0.00 84 1015.2